Time,TemperatureF,DewpointF,PressureIn,WindDirection,WindDirectionDegrees,WindSpeedMPH,WindSpeedGustMPH,Humidity,HourlyPrecipIn,Conditions,Clouds,dailyrainin,SoftwareType,DateUTC
2013-01-19 00:01:00,22.1,13.1,30.25,NE,45,3.1,4.3,68,0.00,,,0.01,WUHU216HW,2013-01-19 05:01:00,
2013-01-19 00:06:00,22.3,13.3,30.25,NNE,23,3.4,4.3,68,0.00,,,0.00,WUHU216HW,2013-01-19 05:06:00,
2013-01-19 00:11:00,22.3,13.3,30.25,NE,45,2.7,4.0,68,0.00,,,0.00,WUHU216HW,2013-01-19 05:11:00,
2013-01-19 00:16:00,22.5,13.5,30.24,NNE,23,2.5,3.4,68,0.00,,,0.00,WUHU216HW,2013-01-19 05:16:00,
2013-01-19 00:21:00,22.5,13.5,30.25,North,0,3.1,3.6,68,0.00,,,0.00,WUHU216HW,2013-01-19 05:21:00,
2013-01-19 00:26:00,22.7,13.7,30.24,North,0,2.5,3.6,68,0.00,,,0.00,WUHU216HW,2013-01-19 05:26:00,
2013-01-19 00:31:00,22.7,13.7,30.23,NE,45,4.0,4.0,68,0.00,,,0.00,WUHU216HW,2013-01-19 05:31:00,
2013-01-19 00:36:00,22.9,13.9,30.23,ENE,68,2.9,4.0,68,0.00,,,0.00,WUHU216HW,2013-01-19 05:36:00,
2013-01-19 00:41:00,23.0,14.0,30.24,NE,45,2.0,3.4,68,0.00,,,0.00,WUHU216HW,2013-01-19 05:41:00,
2013-01-19 00:46:00,23.4,14.4,30.24,NE,45,3.4,3.4,68,0.00,,,0.00,WUHU216HW,2013-01-19 05:46:00,
2013-01-19 00:51:00,23.6,14.6,30.24,NNW,338,1.8,3.4,68,0.00,,,0.00,WUHU216HW,2013-01-19 05:51:00,
2013-01-19 00:56:00,23.8,14.7,30.23,NNE,23,3.1,3.1,68,0.00,,,0.00,WUHU216HW,2013-01-19 05:56:00,
2013-01-19 01:01:00,23.9,14.9,30.23,NE,45,3.4,3.4,68,0.00,,,0.00,WUHU216HW,2013-01-19 06:01:00,
2013-01-19 01:06:00,23.9,14.9,30.23,NNE,23,2.7,3.4,68,0.00,,,0.00,WUHU216HW,2013-01-19 06:06:00,
2013-01-19 01:11:00,24.1,15.0,30.23,NE,45,2.5,3.4,68,0.00,,,0.00,WUHU216HW,2013-01-19 06:11:00,
2013-01-19 01:16:00,24.1,15.0,30.23,NNE,23,1.3,3.4,68,0.00,,,0.00,WUHU216HW,2013-01-19 06:16:00,
2013-01-19 01:21:00,24.3,15.2,30.23,NE,45,2.5,3.4,68,0.00,,,0.00,WUHU216HW,2013-01-19 06:21:00,
2013-01-19 01:26:00,24.5,15.4,30.23,NE,45,4.0,4.0,68,0.00,,,0.00,WUHU216HW,2013-01-19 06:26:00,
2013-01-19 01:31:00,24.7,15.6,30.23,North,0,4.3,4.7,68,0.00,,,0.00,WUHU216HW,2013-01-19 06:31:00,
2013-01-19 01:36:00,24.8,15.7,30.23,NE,45,2.9,4.7,68,0.00,,,0.00,WUHU216HW,2013-01-19 06:36:00,
2013-01-19 01:41:00,24.8,15.7,30.23,NE,45,3.6,3.6,68,0.00,,,0.00,WUHU216HW,2013-01-19 06:41:00,
2013-01-19 01:46:00,25.0,15.8,30.23,NNE,23,2.5,3.6,68,0.00,,,0.00,WUHU216HW,2013-01-19 06:46:00,
2013-01-19 01:51:00,25.0,15.8,30.23,ENE,68,4.0,4.0,68,0.00,,,0.00,WUHU216HW,2013-01-19 06:51:00,
2013-01-19 01:57:00,25.2,16.0,30.23,NNE,23,2.9,4.0,68,0.00,,,0.00,WUHU216HW,2013-01-19 06:57:00,
2013-01-19 02:02:00,25.2,16.4,30.23,NNE,23,2.7,4.0,69,0.00,,,0.00,WUHU216HW,2013-01-19 07:02:00,
2013-01-19 02:07:00,25.4,16.6,30.23,NNE,23,2.5,4.9,69,0.00,,,0.00,WUHU216HW,2013-01-19 07:07:00,
2013-01-19 02:12:00,25.6,16.4,30.22,NNE,23,3.8,4.9,68,0.00,,,0.00,WUHU216HW,2013-01-19 07:12:00,
2013-01-19 02:17:00,25.6,16.4,30.22,NE,45,3.8,4.7,68,0.00,,,0.00,WUHU216HW,2013-01-19 07:17:00,
2013-01-19 02:22:00,25.6,16.4,30.22,NE,45,3.4,4.0,68,0.00,,,0.00,WUHU216HW,2013-01-19 07:22:00,
2013-01-19 02:27:00,25.6,16.4,30.22,NE,45,3.1,4.0,68,0.00,,,0.00,WUHU216HW,2013-01-19 07:27:00,
2013-01-19 02:32:00,25.6,16.4,30.22,NE,45,2.7,3.8,68,0.00,,,0.00,WUHU216HW,2013-01-19 07:32:00,
2013-01-19 02:37:00,25.6,16.4,30.22,NE,45,3.4,4.0,68,0.00,,,0.00,WUHU216HW,2013-01-19 07:37:00,
2013-01-19 02:42:00,25.6,16.0,30.21,North,0,2.5,4.5,67,0.00,,,0.00,WUHU216HW,2013-01-19 07:42:00,
2013-01-19 02:47:00,25.6,16.0,30.21,NNE,23,3.4,4.5,67,0.00,,,0.00,WUHU216HW,2013-01-19 07:47:00,
2013-01-19 02:52:00,25.6,16.0,30.21,NNE,23,2.7,4.9,67,0.00,,,0.00,WUHU216HW,2013-01-19 07:52:00,
2013-01-19 02:58:00,25.6,16.0,30.21,NE,45,4.9,4.9,67,0.00,,,0.00,WUHU216HW,2013-01-19 07:58:00,
2013-01-19 03:03:00,25.4,15.8,30.21,NE,45,2.0,4.9,67,0.00,,,0.00,WUHU216HW,2013-01-19 08:03:00,
2013-01-19 03:08:00,25.2,15.7,30.20,NNE,23,2.5,4.7,67,0.00,,,0.00,WUHU216HW,2013-01-19 08:08:00,
2013-01-19 03:13:00,25.0,15.8,30.20,NNE,23,3.4,4.3,68,0.00,,,0.00,WUHU216HW,2013-01-19 08:13:00,
2013-01-19 03:18:00,25.0,15.8,30.20,NE,45,3.6,4.0,68,0.00,,,0.00,WUHU216HW,2013-01-19 08:18:00,
2013-01-19 03:23:00,25.0,15.8,30.20,NE,45,2.0,5.6,68,0.00,,,0.00,WUHU216HW,2013-01-19 08:23:00,
2013-01-19 03:28:00,25.0,15.8,30.20,NE,45,2.9,5.6,68,0.00,,,0.00,WUHU216HW,2013-01-19 08:28:00,
2013-01-19 03:33:00,24.8,15.7,30.20,NE,45,4.7,4.7,68,0.00,,,0.00,WUHU216HW,2013-01-19 08:33:00,
2013-01-19 03:38:00,25.0,15.8,30.19,NNE,23,4.3,5.8,68,0.00,,,0.00,WUHU216HW,2013-01-19 08:38:00,
2013-01-19 03:43:00,25.0,15.8,30.19,NE,45,3.4,5.8,68,0.00,,,0.00,WUHU216HW,2013-01-19 08:43:00,
2013-01-19 03:48:00,25.0,15.8,30.19,ENE,68,4.5,5.1,68,0.00,,,0.00,WUHU216HW,2013-01-19 08:48:00,
2013-01-19 03:53:00,25.0,15.8,30.19,NNE,23,3.6,4.5,68,0.00,,,0.00,WUHU216HW,2013-01-19 08:53:00,
2013-01-19 03:58:00,25.0,15.8,30.18,NNE,23,2.5,4.0,68,0.00,,,0.00,WUHU216HW,2013-01-19 08:58:00,
2013-01-19 04:03:00,25.0,15.8,30.19,NNW,338,2.5,4.7,68,0.00,,,0.00,WUHU216HW,2013-01-19 09:03:00,
2013-01-19 04:08:00,25.0,15.8,30.18,NNE,23,2.0,4.7,68,0.00,,,0.00,WUHU216HW,2013-01-19 09:08:00,
2013-01-19 04:13:00,25.0,15.8,30.18,North,0,3.4,3.4,68,0.00,,,0.00,WUHU216HW,2013-01-19 09:13:00,
2013-01-19 04:18:00,25.0,16.2,30.18,NNE,23,2.5,3.8,69,0.00,,,0.00,WUHU216HW,2013-01-19 09:18:00,
2013-01-19 04:23:00,25.2,16.4,30.17,NNE,23,3.4,4.0,69,0.00,,,0.00,WUHU216HW,2013-01-19 09:23:00,
2013-01-19 04:28:00,25.4,16.6,30.17,NE,45,4.7,4.7,69,0.00,,,0.00,WUHU216HW,2013-01-19 09:28:00,
2013-01-19 04:33:00,25.4,16.6,30.17,NE,45,0.7,5.1,69,0.00,,,0.00,WUHU216HW,2013-01-19 09:33:00,
2013-01-19 04:38:00,25.6,17.1,30.17,NNE,23,1.8,5.1,70,0.00,,,0.00,WUHU216HW,2013-01-19 09:38:00,
2013-01-19 04:43:00,25.6,17.1,30.17,NE,45,2.2,4.9,70,0.00,,,0.00,WUHU216HW,2013-01-19 09:43:00,
2013-01-19 04:48:00,25.6,17.1,30.17,NNE,23,1.8,4.0,70,0.00,,,0.00,WUHU216HW,2013-01-19 09:48:00,
2013-01-19 04:53:00,25.6,17.1,30.17,NNE,23,2.0,5.6,70,0.00,,,0.00,WUHU216HW,2013-01-19 09:53:00,
2013-01-19 04:58:00,25.7,17.3,30.17,NNE,23,2.2,5.6,70,0.00,,,0.00,WUHU216HW,2013-01-19 09:58:00,
2013-01-19 05:03:00,25.7,17.3,30.17,North,0,4.3,4.3,70,0.00,,,0.00,WUHU216HW,2013-01-19 10:03:00,
2013-01-19 05:08:00,26.1,17.6,30.16,NE,45,3.1,4.3,70,0.00,,,0.00,WUHU216HW,2013-01-19 10:08:00,
2013-01-19 05:13:00,26.3,17.8,30.16,NE,45,1.8,4.0,70,0.00,,,0.00,WUHU216HW,2013-01-19 10:13:00,
2013-01-19 05:18:00,26.6,18.2,30.16,North,0,4.9,4.9,70,0.00,,,0.00,WUHU216HW,2013-01-19 10:18:00,
2013-01-19 05:23:00,26.6,18.2,30.15,NNE,23,2.5,4.9,70,0.00,,,0.00,WUHU216HW,2013-01-19 10:23:00,
2013-01-19 05:28:00,26.6,18.2,30.15,North,0,3.4,4.0,70,0.00,,,0.00,WUHU216HW,2013-01-19 10:28:00,
2013-01-19 05:33:00,26.6,18.5,30.15,NE,45,3.4,4.0,71,0.00,,,0.00,WUHU216HW,2013-01-19 10:33:00,
2013-01-19 05:38:00,26.8,18.6,30.15,NE,45,2.7,4.0,71,0.00,,,0.00,WUHU216HW,2013-01-19 10:38:00,
2013-01-19 05:43:00,27.0,18.8,30.15,North,0,4.5,4.5,71,0.00,,,0.00,WUHU216HW,2013-01-19 10:43:00,
2013-01-19 05:48:00,27.0,18.8,30.14,NNW,338,2.0,4.7,71,0.00,,,0.00,WUHU216HW,2013-01-19 10:48:00,
2013-01-19 05:53:00,27.0,18.8,30.14,NNE,23,5.4,5.4,71,0.00,,,0.00,WUHU216HW,2013-01-19 10:53:00,
2013-01-19 05:58:00,27.2,19.0,30.15,North,0,2.5,5.4,71,0.00,,,0.00,WUHU216HW,2013-01-19 10:58:00,
2013-01-19 06:03:00,27.2,19.0,30.15,NNE,23,4.3,4.3,71,0.00,,,0.00,WUHU216HW,2013-01-19 11:03:00,
2013-01-19 06:08:00,27.4,19.5,30.15,NNE,23,2.0,4.7,72,0.00,,,0.00,WUHU216HW,2013-01-19 11:08:00,
2013-01-19 06:13:00,27.4,19.5,30.14,NNE,23,4.7,4.7,72,0.00,,,0.00,WUHU216HW,2013-01-19 11:13:00,
2013-01-19 06:18:00,27.5,19.7,30.15,East,90,4.0,4.7,72,0.00,,,0.00,WUHU216HW,2013-01-19 11:18:00,
2013-01-19 06:25:00,27.7,20.2,30.15,NE,45,5.6,5.8,73,0.00,,,0.00,WUHU216HW,2013-01-19 11:25:00,
2013-01-19 06:31:00,27.7,20.2,30.15,North,0,1.8,5.8,73,0.00,,,0.00,WUHU216HW,2013-01-19 11:31:00,
2013-01-19 06:38:00,27.9,20.3,30.15,North,0,1.6,4.7,73,0.00,,,0.00,WUHU216HW,2013-01-19 11:38:00,
2013-01-19 06:44:00,28.1,20.5,30.14,NNE,23,3.4,3.4,73,0.00,,,0.00,WUHU216HW,2013-01-19 11:44:00,
2013-01-19 06:50:00,28.3,21.1,30.14,North,0,3.8,5.4,74,0.00,,,0.00,WUHU216HW,2013-01-19 11:50:00,
2013-01-19 06:57:00,28.4,21.3,30.14,North,0,3.1,5.4,74,0.00,,,0.00,WUHU216HW,2013-01-19 11:57:00,
2013-01-19 07:10:00,28.4,21.3,30.14,North,0,5.4,6.0,74,0.00,,,0.00,WUHU216HW,2013-01-19 12:10:00,
2013-01-19 07:16:00,28.8,21.9,30.13,NNE,23,2.7,5.8,75,0.00,,,0.00,WUHU216HW,2013-01-19 12:16:00,
2013-01-19 07:23:00,29.0,22.1,30.13,North,0,5.1,5.4,75,0.00,,,0.00,WUHU216HW,2013-01-19 12:23:00,
2013-01-19 07:29:00,29.2,22.2,30.14,NNE,23,4.7,6.3,75,0.00,,,0.00,WUHU216HW,2013-01-19 12:29:00,
2013-01-19 07:48:00,29.5,22.5,30.13,NE,45,2.9,4.9,75,0.00,,,0.00,WUHU216HW,2013-01-19 12:48:00,
2013-01-19 07:54:00,29.9,23.2,30.12,NE,45,5.4,11.2,76,0.00,,,0.00,WUHU216HW,2013-01-19 12:54:00,
2013-01-19 07:59:00,30.1,23.0,30.12,North,0,4.9,11.2,75,0.00,,,0.00,WUHU216HW,2013-01-19 12:59:00,
2013-01-19 08:04:00,30.4,23.4,30.12,NNW,338,4.3,5.1,75,0.00,,,0.00,WUHU216HW,2013-01-19 13:04:00,
2013-01-19 08:09:00,30.4,23.4,30.12,North,0,2.7,5.1,75,0.00,,,0.00,WUHU216HW,2013-01-19 13:09:00,
2013-01-19 08:14:00,30.4,23.4,30.12,NE,45,4.7,4.7,75,0.00,,,0.00,WUHU216HW,2013-01-19 13:14:00,
2013-01-19 08:19:00,30.6,23.6,30.13,NE,45,3.8,4.7,75,0.00,,,0.00,WUHU216HW,2013-01-19 13:19:00,
2013-01-19 08:24:00,30.6,23.6,30.13,NNE,23,2.5,4.5,75,0.00,,,0.00,WUHU216HW,2013-01-19 13:24:00,
2013-01-19 08:29:00,30.6,23.6,30.13,NE,45,3.6,4.5,75,0.00,,,0.00,WUHU216HW,2013-01-19 13:29:00,
2013-01-19 08:34:00,30.6,23.6,30.13,NE,45,4.0,6.3,75,0.00,,,0.00,WUHU216HW,2013-01-19 13:34:00,
2013-01-19 08:39:00,31.0,23.9,30.13,North,0,3.4,6.3,75,0.00,,,0.00,WUHU216HW,2013-01-19 13:39:00,
2013-01-19 08:44:00,31.3,24.3,30.13,NE,45,2.7,6.9,75,0.00,,,0.00,WUHU216HW,2013-01-19 13:44:00,
2013-01-19 08:49:00,31.7,24.7,30.13,North,0,3.8,6.9,75,0.00,,,0.00,WUHU216HW,2013-01-19 13:49:00,
2013-01-19 08:54:00,32.0,25.0,30.13,NNW,338,3.6,5.8,75,0.00,,,0.00,WUHU216HW,2013-01-19 13:54:00,
2013-01-19 08:59:00,32.8,25.4,30.13,NNE,23,4.0,7.4,74,0.00,,,0.00,WUHU216HW,2013-01-19 13:59:00,
2013-01-19 09:04:00,33.5,26.0,30.12,ENE,68,4.0,7.4,74,0.00,,,0.00,WUHU216HW,2013-01-19 14:04:00,
2013-01-19 09:09:00,34.2,26.4,30.12,NNW,338,5.6,5.8,73,0.00,,,0.00,WUHU216HW,2013-01-19 14:09:00,
2013-01-19 09:14:00,34.7,26.9,30.13,NE,45,2.9,5.8,73,0.00,,,0.00,WUHU216HW,2013-01-19 14:14:00,
2013-01-19 09:19:00,35.1,27.3,30.13,NE,45,4.0,8.1,73,0.00,,,0.00,WUHU216HW,2013-01-19 14:19:00,
2013-01-19 09:24:00,35.1,26.7,30.13,NE,45,6.9,8.3,71,0.00,,,0.00,WUHU216HW,2013-01-19 14:24:00,
2013-01-19 09:29:00,35.1,26.7,30.13,NE,45,3.6,9.6,71,0.00,,,0.00,WUHU216HW,2013-01-19 14:29:00,
2013-01-19 09:34:00,35.5,27.0,30.12,NE,45,4.0,9.6,71,0.00,,,0.00,WUHU216HW,2013-01-19 14:34:00,
2013-01-19 09:39:00,35.5,27.0,30.12,North,0,5.4,8.1,71,0.00,,,0.00,WUHU216HW,2013-01-19 14:39:00,
2013-01-19 09:44:00,35.6,26.8,30.12,NE,45,8.5,8.5,70,0.00,,,0.00,WUHU216HW,2013-01-19 14:44:00,
2013-01-19 09:49:00,36.0,27.2,30.12,NE,45,4.7,8.5,70,0.00,,,0.00,WUHU216HW,2013-01-19 14:49:00,
2013-01-19 09:54:00,36.4,27.5,30.12,NE,45,6.0,7.6,70,0.00,,,0.00,WUHU216HW,2013-01-19 14:54:00,
2013-01-19 09:59:00,36.7,27.6,30.12,North,0,4.0,6.3,69,0.00,,,0.00,WUHU216HW,2013-01-19 14:59:00,
2013-01-19 10:04:00,36.9,27.7,30.12,NNE,23,3.1,7.8,69,0.00,,,0.00,WUHU216HW,2013-01-19 15:04:00,
2013-01-19 10:09:00,37.1,27.6,30.11,NE,45,4.0,9.6,68,0.00,,,0.00,WUHU216HW,2013-01-19 15:09:00,
2013-01-19 10:14:00,37.3,27.3,30.11,ENE,68,5.4,9.6,67,0.00,,,0.00,WUHU216HW,2013-01-19 15:14:00,
2013-01-19 10:19:00,37.4,27.9,30.11,NE,45,5.4,7.6,68,0.00,,,0.00,WUHU216HW,2013-01-19 15:19:00,
2013-01-19 10:24:00,37.8,28.2,30.10,NNE,23,3.4,7.6,68,0.00,,,0.00,WUHU216HW,2013-01-19 15:24:00,
2013-01-19 10:29:00,38.2,28.2,30.10,ENE,68,3.8,5.6,67,0.00,,,0.00,WUHU216HW,2013-01-19 15:29:00,
2013-01-19 10:34:00,38.5,28.4,30.09,NE,45,6.5,7.4,67,0.00,,,0.00,WUHU216HW,2013-01-19 15:34:00,
2013-01-19 10:39:00,38.7,28.6,30.09,NNE,23,4.3,7.4,67,0.00,,,0.00,WUHU216HW,2013-01-19 15:39:00,
2013-01-19 10:44:00,38.7,28.3,30.09,NNE,23,5.4,6.0,66,0.00,,,0.00,WUHU216HW,2013-01-19 15:44:00,
2013-01-19 10:49:00,38.5,28.1,30.09,ENE,68,4.9,7.8,66,0.00,,,0.00,WUHU216HW,2013-01-19 15:49:00,
2013-01-19 10:54:00,38.5,28.1,30.09,NE,45,4.7,7.8,66,0.00,,,0.00,WUHU216HW,2013-01-19 15:54:00,
2013-01-19 10:59:00,38.7,28.3,30.08,NE,45,4.0,6.0,66,0.00,,,0.00,WUHU216HW,2013-01-19 15:59:00,
2013-01-19 11:04:00,38.9,28.5,30.08,NNE,23,2.9,5.4,66,0.00,,,0.00,WUHU216HW,2013-01-19 16:04:00,
2013-01-19 11:09:00,39.2,28.7,30.07,NE,45,5.1,6.3,66,0.00,,,0.00,WUHU216HW,2013-01-19 16:09:00,
2013-01-19 11:14:00,39.4,28.9,30.07,NE,45,4.0,6.3,66,0.00,,,0.00,WUHU216HW,2013-01-19 16:14:00,
2013-01-19 11:20:00,39.8,28.9,30.06,NE,45,6.3,6.3,65,0.00,,,0.00,WUHU216HW,2013-01-19 16:20:00,
2013-01-19 11:25:00,39.8,28.5,30.06,NE,45,5.6,7.8,64,0.00,,,0.00,WUHU216HW,2013-01-19 16:25:00,
2013-01-19 11:30:00,39.8,28.2,30.05,NNE,23,5.4,7.8,63,0.00,,,0.00,WUHU216HW,2013-01-19 16:30:00,
2013-01-19 11:35:00,40.1,28.9,30.05,NE,45,6.5,6.5,64,0.00,,,0.00,WUHU216HW,2013-01-19 16:35:00,
2013-01-19 11:40:00,40.1,28.9,30.04,NE,45,3.8,8.7,64,0.00,,,0.00,WUHU216HW,2013-01-19 16:40:00,
2013-01-19 11:45:00,40.5,29.6,30.04,ENE,68,6.9,8.7,65,0.00,,,0.00,WUHU216HW,2013-01-19 16:45:00,
2013-01-19 11:50:00,40.5,29.3,30.04,NE,45,6.5,6.9,64,0.00,,,0.00,WUHU216HW,2013-01-19 16:50:00,
2013-01-19 11:55:00,40.5,29.3,30.03,ENE,68,4.3,6.9,64,0.00,,,0.00,WUHU216HW,2013-01-19 16:55:00,
2013-01-19 12:00:00,40.9,30.0,30.03,NNE,23,3.4,6.9,65,0.01,,,0.01,WUHU216HW,2013-01-19 17:00:00,
2013-01-19 12:05:00,41.6,30.2,30.02,NNE,23,4.5,6.7,64,0.01,,,0.01,WUHU216HW,2013-01-19 17:05:00,
2013-01-19 12:10:00,41.9,29.9,30.02,NNW,338,4.7,6.7,62,0.01,,,0.01,WUHU216HW,2013-01-19 17:10:00,
2013-01-19 12:15:00,42.3,30.2,30.02,NE,45,4.7,4.9,62,0.01,,,0.01,WUHU216HW,2013-01-19 17:15:00,
2013-01-19 12:20:00,42.7,30.9,30.01,NE,45,3.8,4.9,63,0.01,,,0.01,WUHU216HW,2013-01-19 17:20:00,
2013-01-19 12:25:00,42.8,30.7,30.01,NNE,23,3.4,5.1,62,0.01,,,0.01,WUHU216HW,2013-01-19 17:25:00,
2013-01-19 12:30:00,42.7,30.2,30.00,NE,45,5.4,7.4,61,0.01,,,0.01,WUHU216HW,2013-01-19 17:30:00,
2013-01-19 12:35:00,42.8,29.9,30.00,NE,45,4.7,7.4,60,0.01,,,0.01,WUHU216HW,2013-01-19 17:35:00,
2013-01-19 12:40:00,42.8,29.0,30.00,NNE,23,8.7,8.9,58,0.01,,,0.01,WUHU216HW,2013-01-19 17:40:00,
2013-01-19 12:45:00,42.8,29.4,30.00,North,0,2.5,8.9,59,0.01,,,0.01,WUHU216HW,2013-01-19 17:45:00,
2013-01-19 12:50:00,43.2,30.2,30.00,NE,45,3.4,8.5,60,0.01,,,0.01,WUHU216HW,2013-01-19 17:50:00,
2013-01-19 12:55:00,43.2,29.8,29.99,NE,45,3.8,4.7,59,0.01,,,0.01,WUHU216HW,2013-01-19 17:55:00,
2013-01-19 13:00:00,43.0,30.1,29.99,North,0,2.5,5.1,60,0.00,,,0.01,WUHU216HW,2013-01-19 18:00:00,
2013-01-19 13:06:00,43.2,30.2,29.99,NNE,23,2.5,5.4,60,0.00,,,0.01,WUHU216HW,2013-01-19 18:06:00,
2013-01-19 13:11:00,43.4,30.4,29.99,NE,45,3.6,4.5,60,0.00,,,0.01,WUHU216HW,2013-01-19 18:11:00,
2013-01-19 13:16:00,43.6,30.6,29.98,East,90,3.4,5.4,60,0.00,,,0.01,WUHU216HW,2013-01-19 18:16:00,
2013-01-19 13:21:00,43.9,30.1,29.98,North,0,4.9,5.4,58,0.00,,,0.01,WUHU216HW,2013-01-19 18:21:00,
2013-01-19 13:27:00,43.9,31.0,29.98,North,0,2.5,4.9,60,0.00,,,0.01,WUHU216HW,2013-01-19 18:27:00,
2013-01-19 13:33:00,43.6,29.7,29.97,North,0,3.8,6.0,58,0.00,,,0.01,WUHU216HW,2013-01-19 18:33:00,
2013-01-19 13:38:00,43.7,30.3,29.97,NE,45,3.4,5.8,59,0.00,,,0.01,WUHU216HW,2013-01-19 18:38:00,
2013-01-19 13:43:00,43.7,29.9,29.97,North,0,2.7,5.8,58,0.00,,,0.01,WUHU216HW,2013-01-19 18:43:00,
2013-01-19 13:48:00,43.7,29.9,29.97,NE,45,3.4,5.8,58,0.00,,,0.01,WUHU216HW,2013-01-19 18:48:00,
2013-01-19 13:53:00,43.7,29.9,29.97,NE,45,6.3,6.3,58,0.00,,,0.01,WUHU216HW,2013-01-19 18:53:00,
2013-01-19 13:58:00,43.7,30.3,29.96,North,0,1.3,6.3,59,0.00,,,0.01,WUHU216HW,2013-01-19 18:58:00,
2013-01-19 14:03:00,43.9,30.1,29.96,NNE,23,3.8,5.1,58,0.00,,,0.01,WUHU216HW,2013-01-19 19:03:00,
2013-01-19 14:08:00,43.9,30.1,29.96,NNE,23,5.1,5.6,58,0.00,,,0.01,WUHU216HW,2013-01-19 19:08:00,
2013-01-19 14:13:00,43.7,30.3,29.96,ENE,68,4.0,5.6,59,0.00,,,0.01,WUHU216HW,2013-01-19 19:13:00,
2013-01-19 14:18:00,43.9,30.5,29.96,NNE,23,2.9,4.5,59,0.00,,,0.01,WUHU216HW,2013-01-19 19:18:00,
2013-01-19 14:24:00,43.9,30.5,29.96,North,0,3.8,4.5,59,0.00,,,0.01,WUHU216HW,2013-01-19 19:24:00,
2013-01-19 14:29:00,43.9,30.1,29.96,North,0,2.9,4.9,58,0.00,,,0.01,WUHU216HW,2013-01-19 19:29:00,
2013-01-19 14:34:00,44.1,30.2,29.96,NE,45,4.7,4.9,58,0.00,,,0.01,WUHU216HW,2013-01-19 19:34:00,
2013-01-19 14:39:00,43.9,30.1,29.96,NE,45,2.9,4.9,58,0.00,,,0.01,WUHU216HW,2013-01-19 19:39:00,
2013-01-19 14:44:00,43.7,29.0,29.96,NE,45,6.9,6.9,56,0.00,,,0.01,WUHU216HW,2013-01-19 19:44:00,
2013-01-19 14:49:00,43.7,29.4,29.96,NNE,23,2.0,6.9,57,0.00,,,0.01,WUHU216HW,2013-01-19 19:49:00,
2013-01-19 14:54:00,43.7,29.9,29.96,ENE,68,2.7,4.3,58,0.00,,,0.01,WUHU216HW,2013-01-19 19:54:00,
2013-01-19 14:59:00,43.7,29.4,29.96,North,0,4.5,6.7,57,0.00,,,0.01,WUHU216HW,2013-01-19 19:59:00,
2013-01-19 15:05:00,43.7,29.9,29.96,North,0,3.4,6.7,58,0.00,,,0.01,WUHU216HW,2013-01-19 20:05:00,
2013-01-19 15:10:00,43.7,29.9,29.96,East,90,2.5,4.3,58,0.00,,,0.01,WUHU216HW,2013-01-19 20:10:00,
2013-01-19 15:15:00,43.6,29.7,29.96,NE,45,3.4,3.4,58,0.00,,,0.01,WUHU216HW,2013-01-19 20:15:00,
2013-01-19 15:20:00,43.6,29.7,29.96,North,0,2.0,4.0,58,0.00,,,0.01,WUHU216HW,2013-01-19 20:20:00,
2013-01-19 15:25:00,43.7,30.3,29.96,North,0,1.3,4.0,59,0.00,,,0.01,WUHU216HW,2013-01-19 20:25:00,
2013-01-19 15:30:00,43.6,29.7,29.96,North,0,3.4,3.4,58,0.00,,,0.01,WUHU216HW,2013-01-19 20:30:00,
2013-01-19 15:35:00,43.6,29.7,29.96,NE,45,4.5,4.5,58,0.00,,,0.01,WUHU216HW,2013-01-19 20:35:00,
2013-01-19 15:40:00,43.4,30.0,29.95,NE,45,1.3,4.5,59,0.00,,,0.01,WUHU216HW,2013-01-19 20:40:00,
2013-01-19 15:45:00,43.4,30.0,29.96,NE,45,2.5,4.0,59,0.00,,,0.01,WUHU216HW,2013-01-19 20:45:00,
2013-01-19 15:50:00,43.2,29.8,29.95,NE,45,1.6,3.1,59,0.00,,,0.01,WUHU216HW,2013-01-19 20:50:00,
2013-01-19 15:56:00,43.0,29.6,29.95,NE,45,1.6,3.1,59,0.00,,,0.01,WUHU216HW,2013-01-19 20:56:00,
2013-01-19 16:01:00,43.0,30.1,29.95,North,0,1.8,3.4,60,0.00,,,0.01,WUHU216HW,2013-01-19 21:01:00,
2013-01-19 16:06:00,42.8,29.9,29.94,NE,45,1.1,3.4,60,0.00,,,0.01,WUHU216HW,2013-01-19 21:06:00,
2013-01-19 16:11:00,42.7,29.7,29.94,NE,45,1.1,2.5,60,0.00,,,0.01,WUHU216HW,2013-01-19 21:11:00,
2013-01-19 16:17:00,42.3,29.4,29.94,NE,45,1.3,2.5,60,0.00,,,0.01,WUHU216HW,2013-01-19 21:17:00,
2013-01-19 16:22:00,42.1,29.3,29.94,NE,45,1.8,2.5,60,0.00,,,0.01,WUHU216HW,2013-01-19 21:22:00,
2013-01-19 16:27:00,42.1,29.3,29.94,NE,45,0.7,2.2,60,0.00,,,0.01,WUHU216HW,2013-01-19 21:27:00,
2013-01-19 16:32:00,41.8,29.3,29.94,NE,45,1.3,2.5,61,0.00,,,0.01,WUHU216HW,2013-01-19 21:32:00,
2013-01-19 16:37:00,41.6,29.2,29.94,NE,45,1.1,2.5,61,0.00,,,0.01,WUHU216HW,2013-01-19 21:37:00,
2013-01-19 16:43:00,41.4,29.0,29.94,NE,45,1.6,2.0,61,0.00,,,0.01,WUHU216HW,2013-01-19 21:43:00,
2013-01-19 16:49:00,41.0,28.6,29.94,NE,45,1.1,1.6,61,0.00,,,0.01,WUHU216HW,2013-01-19 21:49:00,
2013-01-19 16:54:00,40.7,28.6,29.93,NE,45,0.4,1.1,62,0.00,,,0.01,WUHU216HW,2013-01-19 21:54:00,
2013-01-19 16:59:00,40.3,28.3,29.94,NE,45,0.0,1.1,62,0.00,,,0.01,WUHU216HW,2013-01-19 21:59:00,
2013-01-19 17:04:00,40.0,28.4,29.93,NE,45,0.0,1.1,63,0.00,,,0.01,WUHU216HW,2013-01-19 22:04:00,
2013-01-19 17:10:00,39.6,28.0,29.93,NE,45,0.4,0.9,63,0.00,,,0.01,WUHU216HW,2013-01-19 22:10:00,
2013-01-19 17:15:00,39.2,27.6,29.93,NE,45,0.7,1.1,63,0.00,,,0.01,WUHU216HW,2013-01-19 22:15:00,
2013-01-19 17:20:00,38.9,27.3,29.93,NE,45,0.7,1.1,63,0.00,,,0.01,WUHU216HW,2013-01-19 22:20:00,
2013-01-19 17:25:00,38.5,27.4,29.93,NNE,23,1.1,1.1,64,0.00,,,0.01,WUHU216HW,2013-01-19 22:25:00,
2013-01-19 17:30:00,38.5,27.4,29.92,NE,45,1.8,1.8,64,0.00,,,0.01,WUHU216HW,2013-01-19 22:30:00,
2013-01-19 17:35:00,38.7,27.9,29.93,NE,45,1.8,1.8,65,0.00,,,0.01,WUHU216HW,2013-01-19 22:35:00,
2013-01-19 17:40:00,38.9,28.0,29.92,North,0,1.1,1.8,65,0.00,,,0.01,WUHU216HW,2013-01-19 22:40:00,
2013-01-19 17:45:00,39.1,28.2,29.92,NNE,23,1.3,2.5,65,0.00,,,0.01,WUHU216HW,2013-01-19 22:45:00,
2013-01-19 17:50:00,39.1,27.8,29.92,NNE,23,0.9,2.5,64,0.00,,,0.01,WUHU216HW,2013-01-19 22:50:00,
2013-01-19 17:55:00,39.2,28.0,29.92,NNE,23,1.6,2.7,64,0.00,,,0.01,WUHU216HW,2013-01-19 22:55:00,
2013-01-19 18:00:00,39.4,28.2,29.92,NNE,23,1.8,2.7,64,0.00,,,0.01,WUHU216HW,2013-01-19 23:00:00,
2013-01-19 18:05:00,39.6,28.4,29.92,NNE,23,2.5,2.5,64,0.00,,,0.01,WUHU216HW,2013-01-19 23:05:00,
2013-01-19 18:11:00,39.6,28.4,29.92,NNE,23,1.1,2.5,64,0.00,,,0.01,WUHU216HW,2013-01-19 23:11:00,
2013-01-19 18:16:00,39.8,28.5,29.92,NNE,23,1.3,1.8,64,0.00,,,0.01,WUHU216HW,2013-01-19 23:16:00,
2013-01-19 18:21:00,39.8,28.5,29.92,NNE,23,0.9,1.8,64,0.00,,,0.01,WUHU216HW,2013-01-19 23:21:00,
2013-01-19 18:26:00,39.6,28.4,29.92,NNE,23,1.1,1.3,64,0.00,,,0.01,WUHU216HW,2013-01-19 23:26:00,
2013-01-19 18:31:00,39.6,28.4,29.92,NNE,23,0.4,1.1,64,0.00,,,0.01,WUHU216HW,2013-01-19 23:31:00,
2013-01-19 18:36:00,39.6,28.4,29.91,North,0,0.0,1.3,64,0.00,,,0.01,WUHU216HW,2013-01-19 23:36:00,
2013-01-19 18:41:00,39.6,28.4,29.92,NNE,23,1.6,2.0,64,0.00,,,0.01,WUHU216HW,2013-01-19 23:41:00,
2013-01-19 18:46:00,39.8,28.5,29.92,NNE,23,0.9,2.7,64,0.00,,,0.01,WUHU216HW,2013-01-19 23:46:00,
2013-01-19 18:51:00,40.0,28.7,29.92,NE,45,1.8,2.7,64,0.00,,,0.01,WUHU216HW,2013-01-19 23:51:00,
2013-01-19 18:56:00,40.1,28.9,29.91,NW,315,1.8,1.8,64,0.00,,,0.01,WUHU216HW,2013-01-19 23:56:00,
2013-01-19 19:02:00,40.5,29.3,29.91,NNE,23,1.1,2.5,64,0.00,,,0.01,WUHU216HW,2013-01-20 00:02:00,
2013-01-19 19:07:00,40.5,29.3,29.91,NE,45,2.5,2.5,64,0.00,,,0.01,WUHU216HW,2013-01-20 00:07:00,
2013-01-19 19:12:00,40.7,29.4,29.91,NE,45,1.6,3.1,64,0.00,,,0.01,WUHU216HW,2013-01-20 00:12:00,
2013-01-19 19:17:00,40.7,29.4,29.91,North,0,1.3,3.1,64,0.00,,,0.01,WUHU216HW,2013-01-20 00:17:00,
2013-01-19 19:22:00,40.9,29.3,29.91,North,0,1.3,2.7,63,0.00,,,0.01,WUHU216HW,2013-01-20 00:22:00,
2013-01-19 19:27:00,40.9,29.6,29.91,North,0,1.8,2.7,64,0.00,,,0.01,WUHU216HW,2013-01-20 00:27:00,
2013-01-19 19:32:00,40.9,29.3,29.90,North,0,2.0,2.5,63,0.00,,,0.01,WUHU216HW,2013-01-20 00:32:00,
2013-01-19 19:37:00,40.9,29.6,29.90,NE,45,1.8,2.0,64,0.00,,,0.01,WUHU216HW,2013-01-20 00:37:00,
2013-01-19 19:42:00,40.9,29.6,29.90,NNE,23,1.8,2.9,64,0.00,,,0.01,WUHU216HW,2013-01-20 00:42:00,
2013-01-19 19:47:00,41.0,29.8,29.90,NE,45,3.4,3.4,64,0.00,,,0.01,WUHU216HW,2013-01-20 00:47:00,
2013-01-19 19:53:00,41.2,30.0,29.89,NE,45,2.0,3.4,64,0.00,,,0.01,WUHU216HW,2013-01-20 00:53:00,
2013-01-19 19:58:00,41.2,30.0,29.89,NNE,23,1.6,3.4,64,0.00,,,0.01,WUHU216HW,2013-01-20 00:58:00,
2013-01-19 20:04:00,41.4,30.2,29.89,NE,45,2.5,3.1,64,0.00,,,0.01,WUHU216HW,2013-01-20 01:04:00,
2013-01-19 20:09:00,41.4,30.2,29.89,NE,45,2.5,3.8,64,0.00,,,0.01,WUHU216HW,2013-01-20 01:09:00,
2013-01-19 20:14:00,41.4,30.2,29.89,North,0,3.6,3.8,64,0.00,,,0.01,WUHU216HW,2013-01-20 01:14:00,
2013-01-19 20:19:00,41.4,30.2,29.89,NE,45,3.1,3.6,64,0.00,,,0.01,WUHU216HW,2013-01-20 01:19:00,
2013-01-19 20:24:00,41.4,30.2,29.88,North,0,2.0,3.6,64,0.00,,,0.01,WUHU216HW,2013-01-20 01:24:00,
2013-01-19 20:29:00,41.4,30.2,29.88,NNE,23,2.2,3.6,64,0.00,,,0.01,WUHU216HW,2013-01-20 01:29:00,
2013-01-19 20:34:00,41.2,30.0,29.88,ENE,68,2.5,3.4,64,0.00,,,0.01,WUHU216HW,2013-01-20 01:34:00,
2013-01-19 20:39:00,41.2,30.0,29.88,NE,45,1.8,3.6,64,0.00,,,0.01,WUHU216HW,2013-01-20 01:39:00,
2013-01-19 20:44:00,41.0,29.8,29.88,NNE,23,1.6,3.8,64,0.00,,,0.01,WUHU216HW,2013-01-20 01:44:00,
2013-01-19 20:49:00,41.0,29.8,29.87,NE,45,3.4,3.8,64,0.00,,,0.01,WUHU216HW,2013-01-20 01:49:00,
2013-01-19 20:54:00,41.0,29.8,29.87,NNE,23,2.5,3.4,64,0.00,,,0.01,WUHU216HW,2013-01-20 01:54:00,
2013-01-19 21:00:00,41.0,29.8,29.87,NNE,23,2.5,2.9,64,0.00,,,0.01,WUHU216HW,2013-01-20 02:00:00,
2013-01-19 21:05:00,40.9,29.6,29.87,NNW,338,2.7,3.8,64,0.00,,,0.01,WUHU216HW,2013-01-20 02:05:00,
2013-01-19 21:10:00,40.7,29.8,29.87,North,0,2.2,3.8,65,0.00,,,0.01,WUHU216HW,2013-01-20 02:10:00,
2013-01-19 21:15:00,40.5,29.6,29.86,NE,45,2.7,3.6,65,0.00,,,0.01,WUHU216HW,2013-01-20 02:15:00,
2013-01-19 21:20:00,40.3,29.4,29.86,NE,45,2.7,3.6,65,0.00,,,0.01,WUHU216HW,2013-01-20 02:20:00,
2013-01-19 21:25:00,40.1,29.6,29.86,NE,45,2.0,4.0,66,0.00,,,0.01,WUHU216HW,2013-01-20 02:25:00,
2013-01-19 21:30:00,40.3,29.8,29.86,ENE,68,3.4,4.0,66,0.00,,,0.01,WUHU216HW,2013-01-20 02:30:00,
2013-01-19 21:35:00,40.3,29.8,29.86,NNE,23,4.0,4.0,66,0.00,,,0.01,WUHU216HW,2013-01-20 02:35:00,
2013-01-19 21:40:00,40.5,30.0,29.85,NNE,23,1.8,4.7,66,0.00,,,0.01,WUHU216HW,2013-01-20 02:40:00,
2013-01-19 21:45:00,40.7,30.2,29.85,North,0,1.8,4.7,66,0.00,,,0.01,WUHU216HW,2013-01-20 02:45:00,
2013-01-19 21:50:00,40.7,29.8,29.85,NNE,23,1.8,4.7,65,0.00,,,0.01,WUHU216HW,2013-01-20 02:50:00,
2013-01-19 21:55:00,40.7,30.2,29.85,NE,45,4.0,4.7,66,0.00,,,0.01,WUHU216HW,2013-01-20 02:55:00,
2013-01-19 22:00:00,40.5,30.0,29.86,NNE,23,1.8,4.0,66,0.00,,,0.01,WUHU216HW,2013-01-20 03:00:00,
2013-01-19 22:05:00,40.5,30.0,29.85,NE,45,2.5,6.9,66,0.00,,,0.01,WUHU216HW,2013-01-20 03:05:00,
2013-01-19 22:11:00,40.3,29.8,29.85,NNE,23,7.2,7.2,66,0.00,,,0.01,WUHU216HW,2013-01-20 03:11:00,
2013-01-19 22:16:00,40.3,29.8,29.85,North,0,2.5,7.2,66,0.00,,,0.01,WUHU216HW,2013-01-20 03:16:00,
2013-01-19 22:21:00,40.5,30.0,29.84,NE,45,2.9,5.1,66,0.00,,,0.01,WUHU216HW,2013-01-20 03:21:00,
2013-01-19 22:26:00,40.5,30.0,29.84,ENE,68,2.5,5.1,66,0.00,,,0.01,WUHU216HW,2013-01-20 03:26:00,
2013-01-19 22:31:00,40.3,29.8,29.84,North,0,1.8,3.1,66,0.00,,,0.01,WUHU216HW,2013-01-20 03:31:00,
2013-01-19 22:36:00,40.3,30.2,29.84,NE,45,4.9,4.9,67,0.00,,,0.01,WUHU216HW,2013-01-20 03:36:00,
2013-01-19 22:42:00,40.3,30.2,29.84,NE,45,4.0,8.3,67,0.00,,,0.01,WUHU216HW,2013-01-20 03:42:00,
2013-01-19 22:47:00,40.3,30.2,29.83,North,0,4.0,8.3,67,0.00,,,0.01,WUHU216HW,2013-01-20 03:47:00,
2013-01-19 22:52:00,40.3,30.2,29.83,NE,45,1.8,5.4,67,0.00,,,0.01,WUHU216HW,2013-01-20 03:52:00,
2013-01-19 22:57:00,40.3,30.2,29.83,ENE,68,4.7,4.9,67,0.00,,,0.01,WUHU216HW,2013-01-20 03:57:00,
2013-01-19 23:02:00,40.3,30.2,29.82,North,0,3.1,4.7,67,0.00,,,0.01,WUHU216HW,2013-01-20 04:02:00,
2013-01-19 23:07:00,40.3,30.2,29.82,NNW,338,3.8,4.7,67,0.00,,,0.01,WUHU216HW,2013-01-20 04:07:00,
2013-01-19 23:12:00,40.3,30.2,29.82,NNW,338,4.0,4.7,67,0.00,,,0.01,WUHU216HW,2013-01-20 04:12:00,
2013-01-19 23:17:00,40.5,30.3,29.81,ENE,68,3.4,5.4,67,0.00,,,0.01,WUHU216HW,2013-01-20 04:17:00,
2013-01-19 23:22:00,40.3,30.2,29.81,NE,45,3.4,6.3,67,0.00,,,0.01,WUHU216HW,2013-01-20 04:22:00,
2013-01-19 23:27:00,40.3,30.2,29.81,NE,45,4.0,6.3,67,0.00,,,0.01,WUHU216HW,2013-01-20 04:27:00,
2013-01-19 23:33:00,40.3,30.2,29.80,North,0,3.4,5.4,67,0.00,,,0.01,WUHU216HW,2013-01-20 04:33:00,
2013-01-19 23:38:00,40.3,30.2,29.80,NNW,338,7.6,7.8,67,0.00,,,0.01,WUHU216HW,2013-01-20 04:38:00,
2013-01-19 23:43:00,40.3,30.2,29.79,North,0,3.4,8.3,67,0.00,,,0.01,WUHU216HW,2013-01-20 04:43:00,
2013-01-19 23:48:00,40.3,30.2,29.79,NE,45,3.6,8.3,67,0.00,,,0.01,WUHU216HW,2013-01-20 04:48:00,
2013-01-19 23:53:00,40.1,30.0,29.79,NE,45,6.7,6.7,67,0.00,,,0.01,WUHU216HW,2013-01-20 04:53:00,
2013-01-19 23:58:00,40.0,29.8,29.80,NNW,338,3.6,6.7,67,0.00,,,0.01,WUHU216HW,2013-01-20 04:58:00,